Wind_Speed
35 34 29 31 32 31 32 30 27 27 31 32 31 31 31 31 30 30 28 27 26 26 26 26 27 29 29 29 30 31 32 33 35 36 39 39 39 41 41 42 43 44 46 48
34 32 30 33 34 34 31 31 30 31 34 37 36 33 31 30 28 27 26 27 27 27 28 31 30 31 32 33 33 34 36 38 40 42 42 44 45 45 46 47 47 49 50 52
37 37 35 35 35 34 34 35 34 38 39 40 39 36 31 30 29 27 26 27 28 29 30 31 31 30 30 32 33 35 36 36 38 40 42 46 48 49 50 51 52 53 52 53
39 37 36 35 36 37 38 38 40 41 42 42 39 39 29 30 30 28 29 30 29 30 33 32 31 32 33 36 37 37 38 38 38 40 43 46 48 50 52 54 56 57 55 56
42 43 41 42 40 43 43 41 42 43 42 42 40 39 35 32 30 29 30 31 31 33 32 34 35 37 38 39 40 41 40 39 39 43 45 47 49 52 55 58 59 61 62 65
43 42 44 43 41 43 46 44 43 42 43 43 36 39 42 37 32 33 32 30 30 33 37 41 41 39 39 40 42 43 42 41 44 47 50 52 54 57 59 60 62 63 64 63
46 43 43 43 44 42 39 38 41 43 43 41 39 41 39 38 37 35 35 37 36 36 38 38 38 41 43 42 43 43 45 46 50 53 56 57 59 60 61 63 64 66 67 68
45 40 39 38 37 35 36 40 42 43 42 42 43 43 40 38 35 35 35 39 40 40 40 40 42 44 48 48 52 50 52 55 57 58 60 62 64 67 69 69 68 69 71 72
45 43 40 37 37 37 38 41 39 43 46 47 45 44 43 43 43 42 40 38 40 40 41 45 46 48 51 53 57 58 58 60 60 63 66 68 71 73 74 75 75 75 76 77
45 43 40 39 39 41 42 43 45 47 47 47 48 48 47 48 47 45 43 42 43 45 47 50 53 56 56 57 60 60 60 63 65 68 73 75 75 76 76 76 77 79 79 79
43 44 43 44 44 41 43 45 47 47 48 49 48 51 54 54 50 48 46 46 49 50 51 55 58 58 60 59 62 64 66 69 70 72 76 78 78 80 81 82 81 81 80 79
43 46 47 46 47 48 48 47 48 49 50 49 52 54 58 55 52 51 51 52 55 58 58 59 59 59 61 62 64 65 69 72 74 76 79 80 81 82 83 83 82 81 80 80
43 51 49 48 50 50 51 51 50 50 51 55 56 57 58 53 53 54 55 54 56 58 59 62 62 65 66 67 69 71 74 76 78 80 82 81 83 83 82 81 81 82 82 83
51 54 57 57 56 56 56 56 56 55 58 58 59 56 58 55 53 54 57 55 58 61 62 63 65 67 69 70 72 75 78 80 82 83 81 82 82 81 81 81 82 83 83 85
57 58 59 57 60 62 63 63 60 61 61 61 56 59 54 50 51 56 59 58 62 62 62 65 70 72 72 74 76 79 82 83 83 81 79 79 80 80 81 81 82 83 84 85
61 64 65 67 64 67 68 66 64 63 62 60 58 59 53 53 58 60 59 60 62 64 66 70 72 74 76 77 79 80 78 77 76 76 78 79 79 80 81 82 83 84 85 86
65 65 62 66 62 67 68 67 63 59 61 56 60 56 56 54 54 56 58 61 64 68 70 73 75 75 75 75 75 74 75 76 77 78 78 79 80 81 82 84 85 85 82 77
49 53 59 60 62 71 67 64 63 63 63 62 61 59 58 58 58 60 62 65 68 70 72 73 74 73 72 72 72 75 76 78 78 78 78 81 83 84 85 84 81 74 67 62
60 61 63 60 62 66 67 67 64 66 68 68 65 65 65 63 63 64 65 68 68 69 71 72 71 70 70 72 74 75 76 77 78 80 83 84 84 82 80 73 66 60 56 55
59 60 62 64 66 69 66 64 67 69 71 71 69 66 69 69 69 65 66 65 68 71 72 72 71 70 71 73 75 76 77 81 82 84 84 80 76 70 64 60 56 55 55 56
56 61 62 62 63 68 63 65 69 74 71 72 73 71 71 70 70 68 67 67 69 71 71 69 70 71 71 74 76 78 80 81 80 77 73 67 62 59 56 54 54 55 56 57
54 61 64 68 66 68 65 68 71 71 72 70 68 69 70 67 65 67 66 64 66 68 69 71 71 72 75 77 75 73 71 70 69 66 61 58 57 55 54 55 55 57 58 60
55 57 61 61 60 61 63 64 66 67 67 67 69 69 67 64 60 61 61 62 64 67 70 72 74 74 69 65 64 65 65 64 62 59 57 57 56 56 56 56 57 59 60 61
57 57 61 64 64 63 65 67 67 68 69 68 66 63 61 58 59 60 61 64 67 69 71 69 65 63 61 61 61 60 59 58 57 57 58 59 58 58 59 58 59 60 61 62
56 57 57 58 59 63 64 63 64 65 66 62 59 60 60 60 60 63 65 68 68 67 60 59 60 59 57 57 57 55 55 57 58 59 59 60 60 60 60 60 60 61 63 62
59 63 65 65 64 64 64 62 61 61 58 58 58 58 59 62 65 67 67 64 59 56 57 58 57 56 55 54 54 54 54 54 56 57 58 58 58 58 58 59 60 61 59 60
Wind_Direction
268 269 274 266 266 270 270 270 265 268 273 274 273 273 274 276 274 274 274 275 278 283 284 285 285 283 284 285 282 283 283 282 282 281 282 281 281 282 282 282 282 280 279 277
269 269 265 267 269 268 268 267 270 272 273 270 274 273 273 271 269 269 271 276 278 277 279 280 279 278 279 280 281 284 285 287 288 289 288 288 288 287 284 283 283 282 282 282
268 268 264 266 267 266 266 268 274 275 275 273 274 271 270 268 270 273 276 280 282 281 278 275 273 273 273 276 278 279 279 277 279 280 281 283 284 283 282 282 280 277 275 272
266 269 269 263 262 265 267 268 273 278 274 272 271 272 265 269 270 276 284 283 282 283 283 279 276 276 277 277 276 276 278 281 282 281 277 274 274 275 277 278 278 278 277 275
271 269 266 265 267 263 265 267 271 274 272 271 271 273 273 268 272 273 278 277 280 281 282 282 280 278 276 274 275 274 276 277 280 280 278 275 274 273 272 271 271 270 271 273
269 271 267 265 266 264 263 265 267 266 267 267 271 275 278 285 284 285 281 273 275 280 281 279 276 272 271 273 275 277 276 278 280 280 279 276 274 275 277 277 276 275 275 274
270 266 265 265 266 264 262 262 263 263 264 270 272 272 279 289 292 291 289 284 282 285 281 280 283 286 282 277 276 279 281 281 281 281 281 281 281 281 280 279 278 279 279 278
265 263 263 261 261 260 259 259 260 264 267 267 268 274 281 284 286 286 285 286 286 287 288 288 287 286 286 287 288 285 283 284 284 283 283 283 282 282 282 281 281 281 282 282
262 260 258 257 259 261 264 265 266 265 264 267 272 275 280 283 283 286 288 288 288 290 289 286 284 283 282 283 284 282 282 284 285 285 285 284 283 282 283 284 286 286 285 285
257 256 253 254 256 257 262 264 264 265 267 270 274 281 284 286 286 289 289 288 289 289 287 287 287 287 285 283 284 285 286 285 285 285 285 286 287 287 287 287 287 287 288 289
255 249 251 254 257 263 264 262 262 264 264 271 282 284 283 284 288 293 291 289 290 292 288 287 286 284 283 282 281 282 285 286 288 288 287 287 288 288 289 289 289 289 289 289
254 247 250 256 257 262 263 261 263 267 274 274 274 280 283 286 289 290 288 291 291 288 287 286 284 283 281 282 284 287 287 288 288 288 288 288 288 289 289 289 290 291 292 291
256 248 252 256 261 267 270 272 272 273 272 270 270 284 283 285 285 284 287 287 284 283 282 283 285 288 289 289 288 289 288 289 289 289 289 291 291 292 292 293 294 294 294 294
257 256 256 263 268 266 267 269 267 265 267 270 276 278 283 282 282 283 282 280 281 284 286 287 288 289 287 286 289 290 290 291 291 291 292 292 292 293 293 293 293 293 293 292
257 262 261 261 267 267 265 269 267 269 271 266 276 276 277 279 281 280 279 280 281 285 289 288 289 289 288 289 289 289 289 290 290 290 291 292 292 291 292 292 292 292 294 295
261 265 267 265 265 261 264 268 269 268 265 271 275 275 276 279 276 278 278 278 282 288 288 287 288 287 285 285 286 288 290 289 290 291 290 290 289 290 291 293 295 295 295 295
264 264 265 264 260 263 265 267 269 267 268 270 269 277 275 279 278 277 279 283 287 286 284 285 285 285 284 287 289 290 289 290 290 289 289 289 292 293 295 296 296 295 294 293
254 261 258 259 262 259 259 262 266 266 265 267 271 272 276 278 277 278 282 283 283 284 284 284 284 285 287 287 288 289 289 288 288 289 291 293 295 296 296 295 295 294 292 292
247 247 253 254 258 260 259 261 265 268 267 265 266 272 275 277 279 281 280 279 282 283 283 284 285 285 287 289 288 287 287 289 292 294 294 296 295 294 295 295 293 293 293 293
250 250 250 252 254 258 261 265 268 268 266 266 269 272 276 279 280 279 281 285 283 282 283 284 286 289 288 286 287 290 292 292 294 294 295 294 293 295 294 293 293 294 294 294
259 255 254 257 263 265 268 269 268 266 269 266 268 270 273 277 280 282 282 282 282 284 285 286 287 287 288 289 291 292 293 294 293 293 292 294 293 293 293 293 293 293 293 293
258 256 257 260 262 267 270 270 269 270 271 273 274 276 278 280 283 283 281 283 283 283 285 286 287 289 290 292 294 293 293 292 292 293 293 292 291 292 293 292 292 292 292 292
261 260 261 261 265 271 273 273 272 273 274 276 277 280 282 282 280 281 281 282 283 284 285 288 291 292 295 295 295 294 293 292 293 293 292 291 292 293 292 291 291 292 293 294
264 265 265 267 269 273 275 275 275 275 275 279 280 280 281 283 285 284 283 283 285 287 291 292 294 296 298 296 295 293 293 292 292 292 292 293 292 292 292 292 292 294 295 298
265 266 270 273 278 276 273 272 270 271 274 276 278 280 282 284 284 283 285 287 290 292 292 294 296 298 298 294 294 294 293 292 292 292 293 293 294 294 295 296 296 297 299 299
269 272 275 276 272 267 265 262 265 270 274 275 277 280 283 283 283 285 289 291 290 292 294 296 297 298 295 294 293 292 292 291 290 291 292 292 293 295 296 296 297 297 297 298
Height
5817 5819 5823 5820 5820 5821 5822 5824 5825 5827 5824 5823 5824 5825 5825 5825 5825 5824 5823 5824 5823 5823 5823 5822 5822 5821 5820 5819 5817 5815 5814 5813 5812 5811 5810 5808 5807 5805 5803 5802 5801 5800 5798 5797
5810 5811 5812 5812 5813 5813 5814 5815 5817 5818 5816 5814 5815 5817 5817 5817 5817 5817 5817 5816 5816 5815 5815 5816 5815 5815 5815 5814 5813 5811 5810 5809 5808 5807 5805 5803 5801 5799 5796 5794 5792 5790 5788 5786
5800 5801 5804 5804 5804 5805 5805 5805 5807 5806 5806 5806 5806 5806 5809 5809 5809 5808 5809 5808 5808 5808 5807 5806 5806 5805 5803 5802 5801 5801 5800 5798 5797 5796 5795 5794 5792 5789 5787 5784 5781 5778 5774 5771
5788 5793 5794 5795 5795 5797 5794 5797 5796 5796 5795 5796 5797 5795 5801 5800 5800 5800 5800 5798 5798 5797 5798 5798 5797 5795 5793 5792 5789 5788 5789 5788 5787 5786 5784 5781 5778 5776 5774 5772 5769 5766 5763 5759
5781 5781 5784 5784 5787 5785 5785 5786 5786 5786 5785 5785 5787 5788 5789 5792 5793 5792 5790 5789 5789 5788 5788 5789 5787 5785 5783 5780 5779 5777 5776 5775 5773 5772 5771 5769 5766 5763 5760 5757 5753 5750 5746 5744
5770 5771 5770 5773 5774 5774 5774 5776 5776 5775 5774 5774 5780 5779 5775 5781 5785 5786 5784 5781 5779 5779 5779 5779 5777 5774 5771 5769 5767 5766 5764 5762 5760 5758 5755 5752 5749 5746 5744 5741 5738 5734 5730 5727
5759 5759 5759 5761 5762 5763 5764 5765 5765 5765 5764 5767 5768 5768 5770 5768 5769 5770 5771 5771 5771 5770 5769 5768 5765 5763 5760 5756 5752 5751 5750 5748 5746 5743 5740 5738 5734 5731 5727 5723 5720 5717 5714 5711
5746 5748 5748 5752 5752 5753 5754 5754 5755 5754 5756 5756 5755 5755 5758 5759 5759 5758 5757 5758 5757 5755 5754 5753 5750 5747 5745 5742 5742 5738 5735 5733 5731 5727 5724 5721 5718 5714 5710 5706 5701 5698 5694 5690
5734 5735 5738 5740 5741 5744 5745 5744 5748 5746 5745 5744 5745 5745 5746 5745 5746 5745 5746 5745 5745 5744 5742 5740 5737 5735 5732 5729 5727 5724 5720 5718 5715 5712 5709 5704 5699 5696 5692 5688 5683 5679 5675 5670
5722 5724 5727 5729 5731 5732 5734 5737 5735 5735 5735 5735 5734 5734 5732 5731 5731 5734 5735 5734 5732 5730 5728 5725 5722 5719 5716 5712 5710 5707 5705 5703 5700 5695 5691 5686 5681 5676 5672 5667 5663 5659 5655 5650
5710 5713 5716 5718 5720 5723 5725 5724 5724 5725 5723 5722 5723 5721 5718 5718 5719 5720 5721 5719 5717 5716 5713 5709 5707 5704 5702 5697 5694 5692 5689 5686 5682 5677 5672 5667 5661 5657 5652 5648 5643 5638 5634 5630
5700 5699 5702 5706 5709 5711 5711 5711 5712 5710 5712 5712 5709 5708 5705 5708 5709 5708 5706 5704 5703 5700 5697 5694 5691 5689 5686 5681 5679 5676 5673 5668 5663 5659 5654 5647 5642 5638 5632 5627 5622 5617 5612 5607
5689 5686 5690 5693 5695 5695 5698 5700 5699 5698 5698 5695 5695 5696 5692 5696 5695 5693 5692 5691 5689 5686 5682 5679 5676 5673 5669 5665 5662 5658 5654 5649 5645 5640 5633 5627 5621 5615 5610 5604 5600 5594 5588 5583
5672 5673 5676 5679 5682 5683 5682 5683 5684 5683 5679 5680 5678 5682 5682 5683 5681 5680 5677 5675 5673 5670 5667 5664 5661 5657 5654 5649 5644 5639 5634 5628 5624 5618 5611 5605 5599 5594 5589 5584 5578 5572 5566 5560
5657 5659 5662 5665 5666 5665 5665 5667 5668 5666 5666 5661 5670 5667 5671 5669 5665 5663 5660 5658 5655 5654 5651 5648 5644 5640 5635 5630 5624 5619 5614 5609 5603 5597 5592 5585 5580 5575 5569 5563 5557 5551 5544 5537
5642 5642 5646 5647 5649 5647 5647 5653 5651 5649 5650 5650 5652 5653 5656 5653 5647 5647 5645 5641 5640 5638 5634 5629 5626 5621 5616 5611 5605 5600 5593 5587 5583 5578 5572 5566 5559 5553 5547 5541 5535 5528 5522 5516
5626 5627 5629 5627 5632 5630 5627 5636 5634 5637 5637 5638 5634 5641 5636 5635 5634 5630 5626 5623 5623 5619 5615 5612 5607 5602 5597 5591 5586 5581 5573 5568 5564 5557 5552 5546 5540 5533 5526 5520 5514 5507 5500 5493
5609 5612 5613 5612 5612 5606 5615 5622 5624 5622 5623 5621 5622 5620 5618 5616 5613 5612 5611 5608 5604 5601 5598 5592 5588 5584 5578 5572 5568 5562 5556 5549 5544 5538 5532 5525 5518 5512 5504 5498 5491 5484 5478 5473
5597 5598 5596 5594 5595 5596 5601 5607 5608 5606 5609 5604 5604 5603 5600 5597 5595 5597 5594 5591 5588 5584 5578 5574 5569 5565 5560 5555 5550 5544 5537 5530 5523 5517 5510 5503 5496 5489 5482 5476 5470 5465 5460 5455
5583 5584 5583 5579 5577 5579 5590 5592 5589 5585 5587 5587 5585 5583 5580 5580 5580 5581 5576 5573 5568 5563 5557 5553 5549 5547 5543 5535 5530 5525 5518 5510 5503 5494 5488 5481 5474 5468 5463 5457 5453 5448 5444 5440
5569 5569 5567 5565 5563 5561 5573 5572 5569 5565 5573 5569 5565 5566 5566 5565 5562 5561 5558 5554 5547 5542 5537 5533 5532 5529 5523 5515 5510 5505 5496 5488 5479 5473 5467 5461 5456 5451 5446 5442 5437 5433 5429 5425
5556 5556 5555 5551 5547 5546 5556 5551 5549 5547 5544 5546 5548 5549 5549 5546 5545 5541 5536 5534 5529 5523 5518 5514 5513 5510 5502 5494 5487 5481 5473 5466 5460 5454 5449 5445 5440 5436 5432 5427 5423 5418 5414 5410
5538 5540 5540 5538 5534 5532 5528 5527 5526 5524 5525 5525 5528 5529 5529 5528 5526 5522 5520 5516 5511 5507 5503 5497 5492 5487 5482 5474 5467 5461 5456 5449 5444 5439 5434 5429 5425 5421 5417 5413 5408 5403 5398 5394
5522 5523 5520 5520 5521 5514 5509 5504 5503 5500 5501 5505 5507 5508 5507 5507 5505 5504 5501 5498 5494 5489 5484 5477 5471 5466 5462 5453 5449 5444 5439 5434 5429 5424 5419 5415 5410 5406 5402 5397 5392 5388 5381 5376
5511 5509 5507 5503 5500 5492 5486 5482 5477 5479 5484 5486 5487 5488 5488 5488 5487 5485 5484 5479 5474 5469 5463 5458 5453 5448 5445 5438 5433 5428 5424 5419 5414 5410 5405 5400 5395 5391 5385 5381 5375 5370 5364 5359
5501 5494 5489 5481 5476 5468 5465 5463 5462 5464 5469 5469 5470 5473 5473 5470 5468 5465 5464 5459 5454 5450 5445 5440 5434 5430 5427 5422 5417 5412 5408 5404 5399 5394 5390 5385 5380 5374 5369 5364 5358 5352 5348 5343